Location: Newark
(41.0400°S, 62.7845°W)
Time: 15:16:03
(UTC+00:00)

STARLINK-3086 - Pass Details

Date: 30 May 2022
Orbit: 570 x 574 km, 70.0° (Epoch: 04 July)

Event Time Altitude Azimuth Distance (km) Brightness Sun altitude
Rises 22:42:46 0° 221° (SW) 2,810 7.6 -20.4°
Reaches altitude 10° 22:45:29 10° 238° (WSW) 1,901 7.0 -20.9°
Maximum altitude 22:48:31 19° 284° (WNW) 1,386 6.6 -21.4°
Drops below altitude 10° 22:51:33 10° 330° (NNW) 1,881 6.8 -22.0°
Sets 22:54:14 0° 347° (NNW) 2,768 7.5 -22.5°
